Tracking 18852 objects as of 24-Nov-2017
HD Live streaming from Space Station
objects crossing your sky now

FENGYUN 1C DEB

Track FENGYUN 1C DEB now!
10-day predictions


NORAD ID: 30709
Int'l Code: 1999-025ART
Perigee: 835.0 km
Apogee: 979.6 km
Inclination: 99.1 °
Period: 103.0 minutes
Semi major axis: 7278 km
RCS: 0.0194 m2 (small)
Launch date: May 10, 1999
Source: People's Republic of China (PRC)
Launch site: Taiyaun Space Center, China (TSC)

Note: This is SATELLITE DEBRIS
aabbcc
Your satellite tracking list
Your tracking list is empty




NASA's NSSDC Master Catalog

Two Line Element Set (TLE):
1 30709U 99025ART 17326.75240869  .00001704  00000-0  11769-2 0  9992
2 30709  99.0759 259.3793 0099298 135.1670 285.9385 13.98158158547799
Source of the keplerian elements: AFSPC